This is the latest recevied weather packets stored in our database for station/object N5PRN. If no packets are shown the sender has not sent any weather packets the latest 10 day(s).
| Time | Temp. | Humidity | Pressure | Rain* | Wind** | Luminosity | Snow |
|---|---|---|---|---|---|---|---|
| 1778084285 | 25.56° C | 95% | 1012.5 hPa | 0 mm | - | 140 W/m² | - |
| 1778083983 | 25° C | 95% | 1012.4 hPa | 0 mm | - | 216 W/m² | - |
| 1778083680 | 25° C | 97% | 1012.3 hPa | 0 mm | - | 257 W/m² | - |
| 1778083376 | 25° C | 96% | 1012.5 hPa | 0 mm | - | 163 W/m² | - |
| 1778083076 | 25° C | 97% | 1012.6 hPa | 0 mm | - | 275 W/m² | - |
| 1778082772 | 24.44° C | 98% | 1012.4 hPa | 0 mm | - | 200 W/m² | - |
| 1778081644 | 24.44° C | 98% | 1012.2 hPa | 0 mm | - | 61 W/m² | - |
| 1778081341 | 24.44° C | 98% | 1012.2 hPa | 0 mm | - | 113 W/m² | - |
| 1778081039 | 24.44° C | 97% | 1012.1 hPa | 0 mm | - | 59 W/m² | - |
| 1778080737 | 24.44° C | 98% | 1012.2 hPa | 0 mm | - | 128 W/m² | - |
| 1778080433 | 24.44° C | 98% | 1012 hPa | 0 mm | - | 370 W/m² | - |
| 1778080131 | 23.89° C | 98% | 1011.8 hPa | 0 mm | - | 204 W/m² | - |
| 1778079827 | 23.89° C | 98% | 1012.2 hPa | 0 mm | - | 198 W/m² | - |
| 1778079524 | 23.89° C | 98% | 1012.1 hPa | 0 mm | - | 116 W/m² | - |
| 1778079220 | 23.89° C | 98% | 1012.2 hPa | 0 mm | - | 93 W/m² | - |
| 1778078918 | 23.89° C | 98% | 1012 hPa | 0 mm | - | 103 W/m² | - |
| 1778078614 | 23.89° C | 98% | 1011.9 hPa | 0 mm | - | 140 W/m² | - |
| 1778078313 | 23.89° C | 98% | 1012 hPa | 0 mm | - | 104 W/m² | - |
| 1778078010 | 23.89° C | 98% | 1011.9 hPa | 0 mm | - | 101 W/m² | - |
| 1778077708 | 23.33° C | 99% | 1012.1 hPa | 0 mm | - | 78 W/m² | - |
| 1778077406 | 23.33° C | 99% | 1012.2 hPa | 0 mm | - | 71 W/m² | - |
| 1778077104 | 23.33° C | 99% | 1011.9 hPa | 0 mm | - | 74 W/m² | - |
| 1778076802 | 23.33° C | 98% | 1012 hPa | 0 mm | - | 49 W/m² | - |
| 1778076500 | 23.33° C | 99% | 1012 hPa | 0 mm | - | 65 W/m² | - |
| 1778076196 | 23.33° C | 98% | 1011.9 hPa | 0 mm | - | 70 W/m² | - |
* Rain latest hour (hover to see other rain measurements)
** Current wind speed in m/s (hover to see current wind gust speed)